Location: G�ndlingen
(48.0142°N, 7.6396°E)
Time: 03:01:57
(UTC+00:00)

Cosmos 2333 Rocket - Pass Details

Date: 05 July 2020
Orbit: 837 x 864 km, 70.8° (Epoch: 04 August)

Event Time Altitude Azimuth Distance (km) Brightness Sun altitude
Rises 22:24:01 0° 235° (SW) 3,399 5.2 -17.6°
Reaches altitude 10° 22:26:40 10° 244° (WSW) 2,471 4.5 -17.7°
Maximum altitude 22:31:51 36° 310° (NW) 1,339 3.7 -17.9°
Drops below altitude 10° 22:37:06 10° 16° (NNE) 2,501 5.6 -18.2°
Sets 22:39:48 0° 25° (NNE) 3,445 6.2 -18.3°
